| time (UTC) | temp F | wind direction | speed MPH | gust MPH | rain 1hr in | rain 24hr in | rain mn in | humidity % | barometer mb |
| 20260902201537 | 97 | 42 | 6.0 | 14.0 | 0.00 | 0.00 | 0.00 | 40 | 1010.2 |
| 20260902200033 | 97 | 32 | 7.0 | 15.0 | 0.00 | 0.00 | 0.00 | 41 | 1010.3 |
| 20260902194529 | 96 | 331 | 8.0 | 16.0 | 0.00 | 0.00 | 0.00 | 42 | 1010.6 |
| 20260902193024 | 96 | 105 | 6.0 | 13.0 | 0.00 | 0.00 | 0.00 | 42 | 1010.9 |
| 20260902191522 | 95 | 42 | 3.0 | 8.0 | 0.00 | 0.00 | 0.00 | 43 | 1011.2 |
| 20260902190020 | 96 | 109 | 6.0 | 13.0 | 0.00 | 0.00 | 0.00 | 41 | 1011.5 |
| 20260902184518 | 95 | 49 | 6.0 | 14.0 | 0.00 | 0.00 | 0.00 | 43 | 1011.6 |
| 20260902183016 | 95 | 11 | 6.0 | 10.0 | 0.00 | 0.00 | 0.00 | 43 | 1011.9 |
| 20260902181514 | 96 | 39 | 4.0 | 10.0 | 0.00 | 0.00 | 0.00 | 43 | 1012.1 |
| 20260902180011 | 94 | 60 | 6.0 | 9.0 | 0.00 | 0.00 | 0.00 | 45 | 1012.5 |
| 20260902174508 | 94 | 42 | 2.0 | 5.0 | 0.00 | 0.00 | 0.00 | 46 | 1012.7 |
| 20260902173020 | 93 | 24 | 3.0 | 11.0 | 0.00 | 0.00 | 0.00 | 46 | 1012.9 |
| 20260902171508 | 92 | 148 | 3.0 | 10.0 | 0.00 | 0.00 | 0.00 | 46 | 1013.2 |
| 20260902170010 | 93 | 81 | 4.0 | 9.0 | 0.00 | 0.00 | 0.00 | 48 | 1013.3 |
| 20260902164504 | 92 | 83 | 6.0 | 10.0 | 0.00 | 0.00 | 0.00 | 48 | 1013.5 |
| 20260902163001 | 92 | 50 | 7.0 | 11.0 | 0.00 | 0.00 | 0.00 | 50 | 1013.5 |
| 20260902161608 | 91 | 95 | 3.0 | 8.0 | 0.00 | 0.00 | 0.00 | 48 | 1013.7 |
| 20260902160057 | 90 | 58 | 3.0 | 8.0 | 0.00 | 0.00 | 0.00 | 54 | 1013.7 |
| 20260902154551 | 89 | 64 | 2.0 | 7.0 | 0.00 | 0.00 | 0.00 | 56 | 1013.7 |
| 20260902153049 | 88 | 163 | 0.0 | 9.0 | 0.00 | 0.00 | 0.00 | 59 | 1013.7 |
| 20260902151547 | 87 | 82 | 5.0 | 7.0 | 0.00 | 0.00 | 0.00 | 60 | 1013.8 |
| 20260902150045 | 86 | 122 | 3.0 | 6.0 | 0.00 | 0.00 | 0.00 | 61 | 1013.7 |
| 20260902144541 | 85 | 105 | 2.0 | 7.0 | 0.00 | 0.00 | 0.00 | 64 | 1013.7 |
| 20260902143040 | 84 | 86 | 3.0 | 8.0 | 0.00 | 0.00 | 0.00 | 66 | 1013.8 |
| 20260902141540 | 83 | 94 | 5.0 | 10.0 | 0.00 | 0.00 | 0.00 | 68 | 1013.9 |
| 20260902140043 | 82 | 98 | 4.0 | 9.0 | 0.00 | 0.00 | 0.00 | 70 | 1013.9 |
| 20260902134538 | 81 | 97 | 7.0 | 11.0 | 0.00 | 0.00 | 0.00 | 72 | 1014.0 |
| 20260902133037 | 80 | 92 | 4.0 | 7.0 | 0.00 | 0.00 | 0.00 | 74 | 1013.9 |
| 20260902131537 | 79 | 97 | 3.0 | 6.0 | 0.00 | 0.00 | 0.00 | 76 | 1013.7 |
| 20260902130038 | 77 | 97 | 4.0 | 7.0 | 0.00 | 0.00 | 0.00 | 79 | 1013.4 |
| 20260902124533 | 76 | 98 | 2.0 | 5.0 | 0.00 | 0.00 | 0.00 | 82 | 1013.3 |
| 20260902123030 | 75 | 73 | 4.0 | 7.0 | 0.00 | 0.00 | 0.00 | 83 | 1013.2 |
| 20260902121529 | 74 | 89 | 0.0 | 0.0 | 0.00 | 0.00 | 0.00 | 83 | 1013.0 |
| 20260902120028 | 74 | 81 | 0.0 | 1.0 | 0.00 | 0.00 | 0.00 | 82 | 1013.0 |
| 20260902114552 | 75 | 82 | 0.0 | 0.0 | 0.00 | 0.00 | 0.00 | 81 | 1013.0 |
| 20260902113023 | 75 | 78 | 2.0 | 4.0 | 0.00 | 0.00 | 0.00 | 81 | 1013.0 |
| 20260902111522 | 76 | 73 | 2.0 | 5.0 | 0.00 | 0.00 | 0.00 | 81 | 1013.1 |
| 20260902110030 | 76 | 90 | 0.0 | 3.0 | 0.00 | 0.00 | 0.00 | 80 | 1013.0 |
| 20260902104532 | 76 | 121 | 0.0 | 0.0 | 0.00 | 0.00 | 0.00 | 80 | 1012.9 |
| 20260902103023 | 76 | 121 | 0.0 | 0.0 | 0.00 | 0.00 | 0.00 | 80 | 1012.9 |
| 20260902101517 | 76 | 121 | 0.0 | 0.0 | 0.00 | 0.00 | 0.00 | 79 | 1012.7 |
| 20260902100016 | 77 | 121 | 0.0 | 0.0 | 0.00 | 0.00 | 0.00 | 78 | 1012.7 |
| 20260902094514 | 77 | 121 | 0.0 | 0.0 | 0.00 | 0.00 | 0.00 | 77 | 1012.7 |
| 20260902093012 | 77 | 121 | 0.0 | 2.0 | 0.00 | 0.00 | 0.00 | 77 | 1012.7 |
| 20260902091510 | 78 | 151 | 0.0 | 1.0 | 0.00 | 0.00 | 0.00 | 75 | 1012.8 |
| 20260902090010 | 78 | 151 | 0.0 | 3.0 | 0.00 | 0.00 | 0.00 | 75 | 1012.8 |
| 20260902084521 | 78 | 159 | 0.0 | 0.0 | 0.00 | 0.00 | 0.00 | 75 | 1012.8 |
| 20260902083007 | 79 | 156 | 0.0 | 0.0 | 0.00 | 0.00 | 0.00 | 74 | 1012.9 |
| 20260902081506 | 79 | 133 | 0.0 | 0.0 | 0.00 | 0.00 | 0.00 | 72 | 1013.0 |
| 20260902080004 | 80 | 133 | 0.0 | 3.0 | 0.00 | 0.00 | 0.00 | 71 | 1012.9 |
| 20260902074501 | 80 | 144 | 2.0 | 4.0 | 0.00 | 0.00 | 0.00 | 71 | 1013.0 |
| 20260902073106 | 80 | 122 | 1.0 | 4.0 | 0.00 | 0.00 | 0.00 | 70 | 1013.0 |
| 20260902071603 | 81 | 157 | 1.0 | 4.0 | 0.00 | 0.00 | 0.00 | 69 | 1013.2 |
| 20260902070057 | 81 | 162 | 1.0 | 6.0 | 0.00 | 0.00 | 0.00 | 68 | 1013.2 |
| 20260902064555 | 81 | 155 | 3.0 | 8.0 | 0.00 | 0.00 | 0.00 | 68 | 1013.1 |
| 20260902063056 | 82 | 150 | 4.0 | 7.0 | 0.00 | 0.00 | 0.00 | 67 | 1013.1 |
| 20260902061553 | 82 | 138 | 5.0 | 11.0 | 0.00 | 0.00 | 0.00 | 66 | 1013.1 |
| 20260902060057 | 82 | 148 | 5.0 | 10.0 | 0.00 | 0.00 | 0.00 | 66 | 1012.9 |
| 20260902054547 | 83 | 127 | 6.0 | 10.0 | 0.00 | 0.00 | 0.00 | 65 | 1012.7 |
| 20260902053058 | 83 | 141 | 5.0 | 11.0 | 0.00 | 0.00 | 0.00 | 64 | 1012.6 |
| 20260902051544 | 84 | 146 | 8.0 | 14.0 | 0.00 | 0.00 | 0.00 | 63 | 1012.5 |
| 20260902050043 | 84 | 135 | 7.0 | 16.0 | 0.00 | 0.00 | 0.00 | 61 | 1012.5 |
| 20260902044538 | 85 | 134 | 9.0 | 14.0 | 0.00 | 0.00 | 0.00 | 59 | 1012.6 |
| 20260902043037 | 86 | 88 | 8.0 | 14.0 | 0.00 | 0.00 | 0.00 | 57 | 1012.5 |
| 20260902041540 | 85 | 112 | 2.0 | 5.0 | 0.00 | 0.00 | 0.00 | 58 | 1012.3 |
| 20260902040037 | 86 | 117 | 1.0 | 3.0 | 0.00 | 0.00 | 0.00 | 56 | 1012.2 |
| 20260902034538 | 86 | 107 | 1.0 | 5.0 | 0.00 | 0.00 | 0.00 | 55 | 1012.3 |
| 20260902033036 | 87 | 116 | 2.0 | 4.0 | 0.00 | 0.00 | 0.00 | 54 | 1012.3 |
| 20260902031535 | 88 | 92 | 3.0 | 5.0 | 0.00 | 0.00 | 0.00 | 53 | 1012.2 |
| 20260902030035 | 88 | 98 | 3.0 | 6.0 | 0.00 | 0.00 | 0.00 | 52 | 1012.0 |
| 20260902024537 | 88 | 108 | 4.0 | 9.0 | 0.00 | 0.00 | 0.00 | 51 | 1011.8 |
| 20260902023037 | 89 | 102 | 4.0 | 7.0 | 0.00 | 0.00 | 0.00 | 51 | 1011.5 |
| 20260902021535 | 89 | 92 | 4.0 | 8.0 | 0.00 | 0.00 | 0.00 | 51 | 1011.3 |
| 20260902020033 | 90 | 360 | 4.0 | 8.0 | 0.00 | 0.00 | 0.00 | 49 | 1011.2 |
| 20260902014536 | 90 | 111 | 5.0 | 11.0 | 0.00 | 0.00 | 0.00 | 48 | 1011.0 |
| 20260902013031 | 91 | 94 | 6.0 | 9.0 | 0.00 | 0.00 | 0.00 | 47 | 1010.8 |
| 20260902011534 | 91 | 85 | 3.0 | 7.0 | 0.00 | 0.00 | 0.00 | 47 | 1010.8 |
| 20260902010034 | 92 | 98 | 5.0 | 9.0 | 0.00 | 0.00 | 0.00 | 46 | 1010.6 |
| 20260902004530 | 92 | 105 | 5.0 | 10.0 | 0.00 | 0.00 | 0.00 | 45 | 1010.6 |
| 20260902003033 | 93 | 118 | 6.0 | 11.0 | 0.00 | 0.00 | 0.00 | 44 | 1010.6 |
| 20260902001543 | 94 | 81 | 9.0 | 13.0 | 0.00 | 0.00 | 0.00 | 42 | 1010.7 |
| 20260902000038 | 95 | 90 | 8.0 | 11.0 | 0.00 | 0.00 | 0.00 | 41 | 1010.8 |
| 20260901234526 | 95 | 143 | 5.0 | 8.0 | 0.00 | 0.00 | 0.00 | 40 | 1010.7 |
| 20260901233031 | 96 | 187 | 3.0 | 8.0 | 0.00 | 0.00 | 0.00 | 40 | 1010.8 |
| 20260901231526 | 95 | 135 | 6.0 | 11.0 | 0.00 | 0.00 | 0.00 | 39 | 1010.9 |
| 20260901230027 | 96 | 104 | 7.0 | 13.0 | 0.00 | 0.00 | 0.00 | 39 | 1011.0 |
| 20260901224528 | 97 | 71 | 6.0 | 12.0 | 0.00 | 0.00 | 0.00 | 39 | 1010.9 |
| 20260901223024 | 96 | 88 | 6.0 | 13.0 | 0.00 | 0.00 | 0.00 | 40 | 1010.8 |
| 20260901221523 | 94 | 96 | 3.0 | 11.0 | 0.00 | 0.00 | 0.00 | 41 | 1010.9 |
| 20260901220029 | 95 | 95 | 9.0 | 17.0 | 0.00 | 0.00 | 0.00 | 39 | 1011.0 |
| 20260901214521 | 98 | 115 | 6.0 | 14.0 | 0.00 | 0.00 | 0.00 | 36 | 1011.1 |
| 20260901213019 | 97 | 84 | 8.0 | 13.0 | 0.00 | 0.00 | 0.00 | 38 | 1011.1 |
| 20260901211530 | 97 | 129 | 5.0 | 9.0 | 0.00 | 0.00 | 0.00 | 38 | 1011.3 |
| 20260901210016 | 96 | 146 | 5.0 | 14.0 | 0.00 | 0.00 | 0.00 | 40 | 1011.5 |
| 20260901204521 | 98 | 117 | 6.0 | 13.0 | 0.00 | 0.00 | 0.00 | 38 | 1011.7 |
| 20260901203018 | 98 | 222 | 4.0 | 13.0 | 0.00 | 0.00 | 0.00 | 39 | 1011.8 |